Location: Hains Lake
(37.8540°N, 99.8578°W)
Time: 11:08:54
(UTC+00:00)

Tiros 1 despin weight - Pass Details

Date: 28 April 2021
Orbit: 593 x 642 km, 48.2° (Epoch: 07 May)

Event Time Altitude Azimuth Distance (km) Brightness Sun altitude
Rises 07:14:59 0° 207° (SSW) 2,928 - -37.1°
Reaches altitude 10° 07:17:31 10° 196° (SSW) 2,021 - -37.0°
Maximum altitude 07:21:35 30° 136° (SE) 1,141 - -36.8°
Drops below altitude 10° 07:25:38 10° 75° (ENE) 2,017 - -36.7°
Exits shadow 07:26:33 - 70° (ENE) 2,332 ? -36.6°
Sets 07:28:10 0° 65° (ENE) 2,922 ? -36.5°
